Terminal Aerodrome Forecast
Issued by NWS

Home | Current Version | Previous Version | Text Only | Print | Product List | Glossary On
Versions: 1 2 3 4 5 6 7 8 9 10 11 12 13 14 15
000
FTUS45 KRIW 260537
TAFJAC
TAF
KJAC 260537Z 2606/2706 18009KT P6SM VCSH BKN030
     FM261600 19015KT P6SM SCT050 BKN150
     FM262100 20015KT P6SM VCSH SCT025 BKN040
     FM270200 20011KT 4SM -SN OVC025
      AMD LTD TO CLD VIS AND WIND=

USA.gov is the U.S. government's official web portal to all federal, state and local government web resources and services.